When you browse on this site, cookies collect data to enhance your experience and personalize the content and advertising you see.
Visit our Privacy Policy to learn more. By continuing to use the site, you agree to this use of cookies and data.
  • In Portugal
  • List of Countries
  • For 7 days
  • Water Temperature
  • Satellite Maps
  • Weather Map
  • Weather Widgets
  • user-avatar
    Login

    Hourly Weather Trypolis

    Today, 19 February, Tuesday

    Time Temperature Precipitation Wind Pressure Humidity
    00:00 +11°C° 0 mm 6 mps 767 mmHg 47%
    01:00 +12°C° 0 mm 5 mps 767 mmHg 48%
    02:00 +12°C° 0 mm 5 mps 767 mmHg 49%
    03:00 +10°C° 0 mm 5 mps 766 mmHg 50%
    04:00 +10°C° 0 mm 5 mps 766 mmHg 51%
    05:00 +10°C° 0 mm 5 mps 766 mmHg 51%
    06:00 +10°C° 0 mm 5 mps 766 mmHg 51%
    07:00 +9°C° 0 mm 5 mps 766 mmHg 51%
    08:00 +12°C° 0 mm 4 mps 766 mmHg 46%
    09:00 +14°C° 0 mm 4 mps 766 mmHg 42%
    10:00 +17°C° 0 mm 4 mps 766 mmHg 37%
    11:00 +18°C° 0 mm 3 mps 766 mmHg 33%
    12:00 +19°C° 0 mm 2 mps 766 mmHg 30%
    13:00 +20°C° 0 mm 2 mps 765 mmHg 27%
    14:00 +20°C° 0 mm 3 mps 765 mmHg 27%
    15:00 +21°C° 0 mm 4 mps 764 mmHg 27%
    16:00 +21°C° 0 mm 4 mps 764 mmHg 27%
    17:00 +20°C° 0 mm 5 mps 764 mmHg 31%
    18:00 +19°C° 0 mm 6 mps 764 mmHg 35%
    19:00 +17°C° 0 mm 6 mps 764 mmHg 40%
    20:00 +16°C° 0 mm 6 mps 764 mmHg 39%
    21:00 +16°C° 0 mm 6 mps 764 mmHg 39%
    22:00 +15°C° 0 mm 6 mps 765 mmHg 38%
    23:00 +15°C° 0 mm 6 mps 765 mmHg 41%

    Tomorrow, 20 February, Wednesday

    Time Temperature Precipitation Wind Pressure Humidity
    00:00 +14°C° 0 mm 6 mps 764 mmHg 43%
    01:00 +13°C° 0 mm 6 mps 764 mmHg 45%
    02:00 +13°C° 0 mm 6 mps 764 mmHg 47%
    03:00 +13°C° 0 mm 6 mps 764 mmHg 49%
    04:00 +11°C° 0 mm 6 mps 764 mmHg 52%
    05:00 +11°C° 0 mm 6 mps 764 mmHg 51%
    06:00 +12°C° 0 mm 5 mps 764 mmHg 51%
    07:00 +12°C° 0 mm 5 mps 764 mmHg 50%
    08:00 +14°C° 0 mm 5 mps 764 mmHg 44%
    09:00 +16°C° 0 mm 5 mps 764 mmHg 38%
    10:00 +19°C° 0 mm 5 mps 765 mmHg 32%
    11:00 +20°C° 0 mm 5 mps 764 mmHg 29%
    12:00 +21°C° 0 mm 5 mps 764 mmHg 25%
    13:00 +23°C° 0 mm 5 mps 764 mmHg 21%
    14:00 +23°C° 0 mm 6 mps 764 mmHg 22%
    15:00 +23°C° 0 mm 6 mps 763 mmHg 22%
    16:00 +23°C° 0 mm 7 mps 763 mmHg 23%
    17:00 +22°C° 0 mm 8 mps 763 mmHg 29%
    18:00 +20°C° 0 mm 8 mps 764 mmHg 35%
    19:00 +18°C° 0 mm 8 mps 764 mmHg 41%
    20:00 +17°C° 0 mm 8 mps 764 mmHg 43%
    21:00 +17°C° 0 mm 8 mps 765 mmHg 46%
    22:00 +16°C° 0 mm 7 mps 765 mmHg 48%
    23:00 +16°C° 0 mm 7 mps 765 mmHg 52%

    Day after tomorrow, 21 February, Thursday

    Time Temperature Precipitation Wind Pressure Humidity
    00:00 +15°C° 0 mm 7 mps 765 mmHg 55%
    01:00 +15°C° 0 mm 7 mps 765 mmHg 59%
    02:00 +14°C° 0 mm 7 mps 765 mmHg 62%
    03:00 +14°C° 0 mm 7 mps 765 mmHg 65%
    04:00 +14°C° 0 mm 6 mps 765 mmHg 69%
    05:00 +14°C° 0 mm 6 mps 766 mmHg 71%
    06:00 +14°C° 0 mm 7 mps 766 mmHg 73%
    07:00 +14°C° 0 mm 7 mps 766 mmHg 75%
    08:00 +15°C° 0 mm 7 mps 767 mmHg 69%
    09:00 +16°C° 0 mm 7 mps 767 mmHg 63%
    10:00 +16°C° 0 mm 7 mps 768 mmHg 57%
    11:00 +17°C° 0 mm 7 mps 768 mmHg 55%
    12:00 +18°C° 0 mm 7 mps 768 mmHg 52%
    13:00 +20°C° 0 mm 7 mps 768 mmHg 49%
    14:00 +20°C° 0 mm 7 mps 767 mmHg 51%
    15:00 +18°C° 0 mm 8 mps 767 mmHg 54%
    16:00 +18°C° 0 mm 8 mps 767 mmHg 56%
    17:00 +17°C° 0 mm 8 mps 768 mmHg 60%
    18:00 +16°C° 0 mm 7 mps 768 mmHg 65%
    19:00 +15°C° 0 mm 7 mps 769 mmHg 69%
    20:00 +14°C° 0 mm 6 mps 769 mmHg 70%
    21:00 +14°C° 0 mm 5 mps 769 mmHg 71%
    22:00 +14°C° 0 mm 5 mps 770 mmHg 72%
    23:00 +13°C° 0 mm 4 mps 770 mmHg 74%

    22 February, Friday

    Time Temperature Precipitation Wind Pressure Humidity
    00:00 +13°C° 0 mm 4 mps 770 mmHg 76%
    01:00 +13°C° 0 mm 4 mps 770 mmHg 77%
    02:00 +12°C° 0 mm 3 mps 769 mmHg 78%
    03:00 +12°C° 0 mm 3 mps 769 mmHg 79%
    04:00 +12°C° 0 mm 3 mps 769 mmHg 80%
    05:00 +12°C° 0 mm 3 mps 769 mmHg 77%
    06:00 +12°C° 0 mm 3 mps 769 mmHg 74%
    07:00 +13°C° 0 mm 3 mps 769 mmHg 71%
    08:00 +13°C° 0 mm 3 mps 770 mmHg 67%
    09:00 +14°C° 0 mm 2 mps 770 mmHg 63%
    10:00 +15°C° 0 mm 2 mps 770 mmHg 59%
    11:00 +15°C° 0 mm 2 mps 770 mmHg 57%
    12:00 +15°C° 0 mm 2 mps 769 mmHg 56%
    13:00 +16°C° 0 mm 2 mps 769 mmHg 54%
    14:00 +16°C° 0 mm 3 mps 768 mmHg 54%
    15:00 +16°C° 0 mm 3 mps 768 mmHg 54%
    16:00 +15°C° 0 mm 4 mps 767 mmHg 54%
    17:00 +14°C° 0 mm 4 mps 767 mmHg 57%
    18:00 +14°C° 0 mm 4 mps 768 mmHg 61%
    19:00 +13°C° 0 mm 4 mps 768 mmHg 64%
    20:00 +13°C° 0 mm 4 mps 768 mmHg 64%
    21:00 +13°C° 0 mm 4 mps 768 mmHg 64%
    22:00 +13°C° 0 mm 4 mps 768 mmHg 64%
    23:00 +13°C° 0 mm 4 mps 768 mmHg 64%

    23 February, Saturday

    Time Temperature Precipitation Wind Pressure Humidity
    00:00 +13°C° 0 mm 5 mps 767 mmHg 65%
    01:00 +13°C° 0 mm 5 mps 767 mmHg 65%
    02:00 +13°C° 0.1 mm 6 mps 766 mmHg 67%
    03:00 +12°C° 0.1 mm 7 mps 766 mmHg 68%
    04:00 +12°C° 0.1 mm 7 mps 765 mmHg 69%
    05:00 +12°C° 0.2 mm 8 mps 765 mmHg 70%
    06:00 +12°C° 0.2 mm 8 mps 765 mmHg 71%
    07:00 +12°C° 0.2 mm 9 mps 765 mmHg 72%
    08:00 +12°C° 0.2 mm 9 mps 765 mmHg 69%
    09:00 +13°C° 0.2 mm 9 mps 765 mmHg 65%
    10:00 +14°C° 0.2 mm 10 mps 765 mmHg 62%
    11:00 +14°C° 0.4 mm 10 mps 765 mmHg 60%
    12:00 +16°C° 0.4 mm 10 mps 765 mmHg 59%
    13:00 +16°C° 0.4 mm 11 mps 764 mmHg 57%
    14:00 +16°C° 0 mm 11 mps 764 mmHg 56%
    15:00 +16°C° 0 mm 11 mps 764 mmHg 54%
    16:00 +16°C° 0 mm 11 mps 764 mmHg 53%
    17:00 +14°C° 0.2 mm 11 mps 764 mmHg 57%
    18:00 +14°C° 0.2 mm 11 mps 764 mmHg 61%
    19:00 +13°C° 0.2 mm 10 mps 764 mmHg 66%
    20:00 +13°C° 0.1 mm 11 mps 764 mmHg 62%
    21:00 +13°C° 0.1 mm 11 mps 764 mmHg 59%
    22:00 +12°C° 0.1 mm 11 mps 764 mmHg 55%
    23:00 +12°C° 0 mm 11 mps 764 mmHg 56%

    24 February, Sunday

    Time Temperature Precipitation Wind Pressure Humidity
    00:00 +12°C° 0 mm 10 mps 764 mmHg 57%
    01:00 +12°C° 0 mm 10 mps 764 mmHg 58%
    02:00 +11°C° 0.1 mm 9 mps 764 mmHg 60%
    03:00 +11°C° 0.1 mm 8 mps 764 mmHg 62%
    04:00 +11°C° 0.1 mm 8 mps 764 mmHg 64%
    05:00 +11°C° 0.1 mm 8 mps 764 mmHg 63%
    06:00 +11°C° 0.1 mm 8 mps 764 mmHg 61%
    07:00 +11°C° 0.1 mm 8 mps 764 mmHg 60%
    08:00 +11°C° 0 mm 8 mps 765 mmHg 55%
    09:00 +11°C° 0 mm 7 mps 765 mmHg 51%
    10:00 +12°C° 0 mm 7 mps 766 mmHg 46%
    11:00 +12°C° 0 mm 7 mps 766 mmHg 45%
    12:00 +13°C° 0 mm 6 mps 765 mmHg 44%
    13:00 +13°C° 0 mm 6 mps 765 mmHg 43%
    14:00 +13°C° 0 mm 5 mps 765 mmHg 45%
    15:00 +13°C° 0 mm 5 mps 765 mmHg 47%
    16:00 +13°C° 0 mm 5 mps 765 mmHg 49%
    17:00 +12°C° 0.1 mm 5 mps 766 mmHg 51%
    18:00 +12°C° 0.1 mm 5 mps 766 mmHg 54%
    19:00 +12°C° 0.1 mm 5 mps 766 mmHg 56%
    20:00 +10°C° 0.1 mm 5 mps 766 mmHg 57%
    21:00 +11°C° 0.1 mm 4 mps 766 mmHg 57%
    22:00 +11°C° 0.1 mm 4 mps 766 mmHg 58%
    23:00 +10°C° 0.1 mm 5 mps 765 mmHg 58%
    Show more